| time (UTC) | temp F | wind direction | speed knots | gust knots | rain 1hr in | rain 24hr in | rain mn in | humidity % | barometer mb |
| 20260506184606 | 51 | 68 | 0.0 | 4.3 | 0.00 | 0.00 | 0.00 | 66 | 1010.4 |
| 20260506183600 | 51 | 23 | 0.0 | 5.2 | 0.00 | 0.00 | 0.00 | 64 | 1010.3 |
| 20260506182553 | 52 | 45 | 0.0 | 4.3 | 0.00 | 0.00 | 0.00 | 64 | 1010.2 |
| 20260506181546 | 52 | 45 | 0.0 | 5.2 | 0.00 | 0.00 | 0.00 | 64 | 1010.1 |
| 20260506180539 | 52 | 68 | 0.0 | 5.2 | 0.00 | 0.00 | 0.00 | 63 | 1010.0 |
| 20260506175533 | 53 | 45 | 0.0 | 5.2 | 0.00 | 0.00 | 0.00 | 62 | 1009.9 |
| 20260506174526 | 53 | 68 | 0.9 | 6.1 | 0.00 | 0.00 | 0.00 | 59 | 1009.9 |
| 20260506173520 | 54 | 45 | 0.9 | 9.6 | 0.00 | 0.00 | 0.00 | 57 | 1009.9 |
| 20260506172513 | 55 | 45 | 2.6 | 7.8 | 0.00 | 0.00 | 0.00 | 56 | 1009.8 |
| 20260506171506 | 56 | 45 | 2.6 | 7.8 | 0.00 | 0.00 | 0.00 | 56 | 1009.8 |
| 20260506170459 | 56 | 45 | 0.0 | 9.6 | 0.00 | 0.00 | 0.00 | 55 | 1009.9 |
| 20260506165453 | 56 | 45 | 0.0 | 4.3 | 0.00 | 0.00 | 0.00 | 53 | 1010.0 |
| 20260506164446 | 57 | 68 | 1.7 | 7.8 | 0.00 | 0.00 | 0.00 | 53 | 1010.0 |
| 20260506163440 | 58 | 113 | 0.0 | 7.8 | 0.00 | 0.00 | 0.00 | 51 | 1010.0 |
| 20260506162434 | 58 | 23 | 2.6 | 8.7 | 0.00 | 0.00 | 0.00 | 50 | 1009.8 |
| 20260506161431 | 58 | 68 | 1.7 | 6.1 | 0.00 | 0.00 | 0.00 | 48 | 1009.8 |
| 20260506160422 | 59 | 68 | 0.9 | 9.6 | 0.00 | 0.00 | 0.00 | 45 | 1009.8 |
| 20260506155416 | 61 | 68 | 2.6 | 9.6 | 0.00 | 0.00 | 0.00 | 43 | 1009.8 |
| 20260506154411 | 67 | 68 | 0.0 | 2.6 | 0.00 | 0.00 | 0.00 | 44 | 1009.5 |
| 20260506153402 | 63 | 203 | 0.0 | 0.0 | 0.00 | 0.00 | 0.00 | 42 | 1009.7 |
| 20260506152356 | 61 | 203 | 0.0 | 0.0 | 0.00 | 0.00 | 0.00 | 40 | 1009.7 |
| 20260506151351 | 63 | 203 | 0.0 | 0.0 | 0.00 | 0.00 | 0.00 | 40 | 1009.8 |
| 20260506150342 | 63 | 203 | 0.0 | 0.0 | 0.00 | 0.00 | 0.00 | 40 | 1009.8 |
| 20260506145336 | 64 | 203 | 0.0 | 2.6 | 0.00 | 0.00 | 0.00 | 39 | 1009.8 |
| 20260506144331 | 71 | 203 | 0.0 | 1.7 | 0.00 | 0.00 | 0.00 | 37 | 1009.7 |
| 20260506143322 | 69 | 203 | 0.0 | 2.6 | 0.00 | 0.00 | 0.00 | 40 | 1009.9 |
| 20260506142322 | 67 | 203 | 0.0 | 0.0 | 0.00 | 0.00 | 0.00 | 38 | 1010.1 |
| 20260506141311 | 68 | 203 | 0.9 | 4.3 | 0.00 | 0.00 | 0.00 | 39 | 1010.2 |
| 20260506140302 | 68 | 315 | 0.0 | 2.6 | 0.00 | 0.00 | 0.00 | 42 | 1010.2 |
| 20260506135255 | 68 | 225 | 0.0 | 1.7 | 0.00 | 0.00 | 0.00 | 38 | 1010.3 |
| 20260506134251 | 68 | 270 | 0.0 | 3.5 | 0.00 | 0.00 | 0.00 | 40 | 1010.4 |
| 20260506133241 | 70 | 270 | 0.0 | 0.0 | 0.00 | 0.00 | 0.00 | 41 | 1010.4 |
| 20260506132234 | 69 | 270 | 0.0 | 2.6 | 0.00 | 0.00 | 0.00 | 39 | 1010.5 |
| 20260506131227 | 67 | 270 | 0.0 | 1.7 | 0.00 | 0.00 | 0.00 | 38 | 1010.6 |
| 20260506130221 | 66 | 270 | 0.0 | 2.6 | 0.00 | 0.00 | 0.00 | 41 | 1010.7 |
| 20260506125214 | 70 | 248 | 0.9 | 2.6 | 0.00 | 0.00 | 0.00 | 40 | 1010.7 |
| 20260506124207 | 69 | 203 | 0.0 | 3.5 | 0.00 | 0.00 | 0.00 | 40 | 1010.8 |
| 20260506123201 | 68 | 180 | 0.9 | 4.3 | 0.00 | 0.00 | 0.00 | 42 | 1010.8 |
| 20260506122154 | 67 | 203 | 0.0 | 0.9 | 0.00 | 0.00 | 0.00 | 39 | 1010.9 |
| 20260506121147 | 69 | 225 | 0.0 | 5.2 | 0.00 | 0.00 | 0.00 | 40 | 1010.9 |
| 20260506120140 | 66 | 270 | 0.0 | 4.3 | 0.00 | 0.00 | 0.00 | 38 | 1010.9 |
| 20260506115134 | 69 | 203 | 0.0 | 0.0 | 0.00 | 0.00 | 0.00 | 41 | 1010.9 |
| 20260506114127 | 67 | 225 | 0.0 | 1.7 | 0.00 | 0.00 | 0.00 | 42 | 1011.2 |
| 20260506113119 | 65 | 203 | 0.9 | 6.1 | 0.00 | 0.00 | 0.00 | 42 | 1011.3 |
| 20260506112112 | 65 | 225 | 0.0 | 0.0 | 0.00 | 0.00 | 0.00 | 44 | 1011.3 |
| 20260506110119 | 62 | 225 | 0.0 | 0.0 | 0.00 | 0.00 | 0.00 | 45 | 1011.5 |
| 20260506105112 | 63 | 225 | 0.9 | 3.5 | 0.00 | 0.00 | 0.00 | 49 | 1011.6 |
| 20260506104105 | 61 | 225 | 0.0 | 3.5 | 0.00 | 0.00 | 0.00 | 47 | 1011.8 |
| 20260506103058 | 59 | 158 | 0.0 | 0.0 | 0.00 | 0.00 | 0.00 | 51 | 1011.8 |
| 20260506102053 | 59 | 225 | 0.0 | 0.0 | 0.00 | 0.00 | 0.00 | 49 | 1011.8 |
| 20260506100037 | 55 | 248 | 0.0 | 0.0 | 0.00 | 0.00 | 0.00 | 53 | 1012.1 |
| 20260506095027 | 57 | 270 | 0.0 | 0.0 | 0.00 | 0.00 | 0.00 | 55 | 1012.0 |
| 20260506094019 | 57 | 270 | 0.0 | 0.0 | 0.00 | 0.00 | 0.00 | 54 | 1011.9 |
| 20260506093013 | 52 | 270 | 0.0 | 0.0 | 0.00 | 0.00 | 0.00 | 58 | 1012.0 |
| 20260506092005 | 56 | 270 | 0.0 | 0.0 | 0.00 | 0.00 | 0.00 | 57 | 1011.8 |
| 20260506090957 | 51 | 315 | 0.0 | 0.0 | 0.00 | 0.00 | 0.00 | 62 | 1012.0 |
| 20260506085953 | 50 | 315 | 0.0 | 0.9 | 0.00 | 0.00 | 0.00 | 66 | 1012.0 |
| 20260506084942 | 51 | 113 | 0.0 | 0.0 | 0.00 | 0.00 | 0.00 | 67 | 1012.0 |
| 20260506083936 | 48 | 68 | 0.0 | 0.0 | 0.00 | 0.00 | 0.00 | 68 | 1012.0 |
| 20260506082928 | 47 | 45 | 0.0 | 3.5 | 0.00 | 0.00 | 0.00 | 75 | 1012.0 |
| 20260506081921 | 46 | 45 | 0.0 | 0.0 | 0.00 | 0.00 | 0.00 | 79 | 1012.2 |
| 20260506072845 | 41 | 338 | 0.0 | 0.0 | 0.00 | 0.00 | 0.00 | 99 | 1012.5 |
| 20260506071838 | 40 | 338 | 0.0 | 0.0 | 0.00 | 0.00 | 0.00 | 99 | 1012.5 |
| 20260506070833 | 39 | 338 | 0.0 | 0.0 | 0.00 | 0.00 | 0.00 | 99 | 1012.6 |
| 20260506050703 | 34 | 338 | 0.0 | 0.0 | 0.00 | 0.00 | 0.00 | 99 | 1012.2 |
| 20260506044652 | 34 | 338 | 0.0 | 0.0 | 0.00 | 0.00 | 0.00 | 99 | 1012.2 |
| 20260506043642 | 34 | 338 | 0.0 | 0.0 | 0.00 | 0.00 | 0.00 | 99 | 1012.2 |
| 20260506042635 | 34 | 338 | 0.0 | 0.0 | 0.00 | 0.00 | 0.00 | 99 | 1012.2 |
| 20260506041628 | 34 | 338 | 0.0 | 0.0 | 0.00 | 0.00 | 0.00 | 99 | 1012.1 |
| 20260506040620 | 35 | 338 | 0.0 | 0.0 | 0.00 | 0.00 | 0.00 | 99 | 1012.1 |
| 20260506035614 | 35 | 338 | 0.0 | 0.0 | 0.00 | 0.00 | 0.00 | 99 | 1012.2 |
| 20260506034607 | 35 | 338 | 0.0 | 0.0 | 0.00 | 0.00 | 0.00 | 99 | 1012.1 |
| 20260506033600 | 36 | 338 | 0.0 | 0.0 | 0.00 | 0.00 | 0.00 | 99 | 1012.2 |
| 20260506032553 | 35 | 338 | 0.0 | 0.0 | 0.00 | 0.00 | 0.00 | 99 | 1012.3 |
| 20260506031546 | 36 | 338 | 0.0 | 0.0 | 0.00 | 0.00 | 0.00 | 99 | 1012.2 |
| 20260506025533 | 36 | 338 | 0.0 | 0.0 | 0.00 | 0.00 | 0.00 | 99 | 1012.1 |
| 20260506024526 | 36 | 338 | 0.0 | 0.0 | 0.00 | 0.00 | 0.00 | 99 | 1012.2 |
| 20260506023519 | 36 | 338 | 0.0 | 0.0 | 0.00 | 0.00 | 0.00 | 99 | 1012.1 |
| 20260506022512 | 36 | 338 | 0.0 | 0.0 | 0.00 | 0.00 | 0.00 | 99 | 1012.1 |
| 20260506021506 | 37 | 338 | 0.0 | 0.0 | 0.00 | 0.00 | 0.00 | 99 | 1012.1 |
| 20260506020458 | 37 | 338 | 0.0 | 0.0 | 0.00 | 0.00 | 0.00 | 99 | 1012.1 |
| 20260506015452 | 37 | 338 | 0.0 | 0.0 | 0.00 | 0.00 | 0.00 | 99 | 1012.2 |
| 20260506014449 | 38 | 338 | 0.0 | 0.0 | 0.00 | 0.00 | 0.00 | 99 | 1012.1 |
| 20260506013438 | 38 | 338 | 0.0 | 0.0 | 0.00 | 0.00 | 0.00 | 99 | 1012.2 |
| 20260506012432 | 37 | 338 | 0.0 | 0.0 | 0.00 | 0.00 | 0.00 | 99 | 1012.2 |
| 20260506011423 | 38 | 338 | 0.0 | 0.0 | 0.00 | 0.00 | 0.00 | 99 | 1012.1 |
| 20260506010416 | 37 | 338 | 0.0 | 0.0 | 0.00 | 0.00 | 0.00 | 99 | 1012.2 |
| 20260506005412 | 37 | 338 | 0.0 | 0.0 | 0.00 | 0.00 | 0.00 | 99 | 1012.2 |
| 20260506004403 | 38 | 338 | 0.0 | 0.0 | 0.00 | 0.00 | 0.00 | 99 | 1012.2 |
| 20260506003356 | 38 | 338 | 0.0 | 0.0 | 0.00 | 0.00 | 0.00 | 99 | 1012.3 |
| 20260506002352 | 38 | 338 | 0.0 | 0.0 | 0.00 | 0.00 | 0.00 | 97 | 1012.2 |
| 20260506001343 | 39 | 338 | 0.0 | 0.0 | 0.00 | 0.00 | 0.00 | 96 | 1012.2 |
| 20260506000336 | 39 | 338 | 0.0 | 0.0 | 0.00 | 0.00 | 0.00 | 95 | 1012.2 |
| 20260505235332 | 40 | 338 | 0.0 | 0.0 | 0.00 | 0.00 | 0.00 | 95 | 1012.2 |
| 20260505234322 | 40 | 338 | 0.0 | 0.0 | 0.00 | 0.00 | 0.00 | 95 | 1012.2 |
| 20260505233315 | 41 | 338 | 0.0 | 0.0 | 0.00 | 0.00 | 0.00 | 96 | 1012.3 |
| 20260505232309 | 40 | 338 | 0.0 | 0.0 | 0.00 | 0.00 | 0.00 | 94 | 1012.2 |
| 20260505231301 | 40 | 338 | 0.0 | 0.0 | 0.00 | 0.00 | 0.00 | 89 | 1012.4 |
| 20260505230254 | 40 | 338 | 0.0 | 0.0 | 0.00 | 0.00 | 0.00 | 87 | 1012.4 |
| 20260505225249 | 41 | 338 | 0.0 | 0.0 | 0.00 | 0.00 | 0.00 | 87 | 1012.4 |
| 20260505224240 | 41 | 338 | 0.0 | 0.0 | 0.00 | 0.00 | 0.00 | 87 | 1012.3 |
| 20260505223233 | 41 | 338 | 0.0 | 0.0 | 0.00 | 0.00 | 0.00 | 85 | 1012.4 |
| 20260505222229 | 42 | 338 | 0.0 | 0.0 | 0.00 | 0.00 | 0.00 | 85 | 1012.5 |
| 20260505221219 | 42 | 338 | 0.0 | 0.0 | 0.00 | 0.02 | 0.00 | 83 | 1012.4 |
| 20260505220212 | 42 | 270 | 0.0 | 0.0 | 0.00 | 0.02 | 0.00 | 82 | 1012.4 |
| 20260505215205 | 43 | 270 | 0.0 | 0.0 | 0.00 | 0.04 | 0.02 | 82 | 1012.3 |
| 20260505214159 | 43 | 270 | 0.0 | 0.0 | 0.00 | 0.06 | 0.02 | 81 | 1012.5 |
| 20260505213151 | 43 | 270 | 0.0 | 0.0 | 0.00 | 0.06 | 0.02 | 80 | 1012.6 |
| 20260505212145 | 43 | 270 | 0.0 | 0.0 | 0.00 | 0.18 | 0.02 | 79 | 1012.4 |
| 20260505211138 | 43 | 270 | 0.0 | 0.0 | 0.00 | 0.18 | 0.02 | 78 | 1012.2 |
| 20260505210131 | 43 | 270 | 0.0 | 0.0 | 0.00 | 0.18 | 0.02 | 75 | 1012.2 |
| 20260505205124 | 44 | 293 | 0.0 | 0.0 | 0.00 | 0.18 | 0.02 | 74 | 1012.2 |
| 20260505204117 | 44 | 315 | 0.0 | 2.6 | 0.00 | 0.18 | 0.02 | 72 | 1012.1 |
| 20260505203110 | 44 | 338 | 0.9 | 6.1 | 0.00 | 0.18 | 0.02 | 71 | 1011.9 |
| 20260505202103 | 44 | 338 | 0.0 | 3.5 | 0.00 | 0.18 | 0.02 | 68 | 1011.8 |
| 20260505201056 | 45 | 293 | 0.0 | 2.6 | 0.00 | 0.18 | 0.02 | 67 | 1011.9 |
| 20260505200049 | 45 | 338 | 0.0 | 7.8 | 0.00 | 0.18 | 0.02 | 66 | 1011.6 |
| 20260505195043 | 46 | 315 | 1.7 | 7.8 | 0.00 | 0.18 | 0.02 | 65 | 1011.6 |
| 20260505193030 | 47 | 338 | 0.0 | 3.5 | 0.00 | 0.18 | 0.02 | 63 | 1011.3 |
| 20260505192023 | 47 | 338 | 0.0 | 4.3 | 0.00 | 0.18 | 0.02 | 62 | 1011.2 |
| 20260505191016 | 48 | 338 | 0.0 | 4.3 | 0.00 | 0.18 | 0.02 | 61 | 1011.0 |